Year,Month,Day,Hour,Minute,Value (Times are PST for temperature in C)
2022,04,17,00,00,6.00
2022,04,17,00,01,6.00
2022,04,17,00,02,6.00
2022,04,17,00,03,6.00
2022,04,17,00,04,6.00
2022,04,17,00,05,5.90
2022,04,17,00,06,5.90
2022,04,17,00,07,5.90
2022,04,17,00,08,5.90
2022,04,17,00,09,5.90
2022,04,17,00,10,5.90
2022,04,17,00,11,5.90
2022,04,17,00,12,5.90
2022,04,17,00,13,5.90
2022,04,17,00,14,5.90
2022,04,17,00,15,5.90
2022,04,17,00,16,5.90
2022,04,17,00,17,5.90
2022,04,17,00,18,5.90
2022,04,17,00,19,5.90
2022,04,17,00,20,5.90
2022,04,17,00,21,5.80
2022,04,17,00,22,5.80
2022,04,17,00,23,5.80
2022,04,17,00,24,5.70
2022,04,17,00,25,5.60
2022,04,17,00,26,5.60
2022,04,17,00,27,5.60
2022,04,17,00,28,5.60
2022,04,17,00,29,5.60
2022,04,17,00,30,5.60
2022,04,17,00,31,5.60
2022,04,17,00,32,5.50
2022,04,17,00,33,5.60
2022,04,17,00,34,5.60
2022,04,17,00,35,5.60
2022,04,17,00,36,5.60
2022,04,17,00,37,5.70
2022,04,17,00,38,5.70
2022,04,17,00,39,5.70
2022,04,17,00,40,5.80
2022,04,17,00,41,5.80
2022,04,17,00,42,5.80
2022,04,17,00,43,5.80
2022,04,17,00,44,5.70
2022,04,17,00,45,5.70
2022,04,17,00,46,5.70
2022,04,17,00,47,5.70
2022,04,17,00,48,5.60
2022,04,17,00,49,5.60
2022,04,17,00,50,5.60
2022,04,17,00,51,5.60
2022,04,17,00,52,5.60
2022,04,17,00,53,5.50
2022,04,17,00,54,5.50
2022,04,17,00,55,5.40
2022,04,17,00,56,5.40
2022,04,17,00,57,5.30
2022,04,17,00,58,5.30
2022,04,17,00,59,5.30
2022,04,17,01,00,5.30
2022,04,17,01,01,5.20
2022,04,17,01,02,5.20
2022,04,17,01,03,5.20
2022,04,17,01,04,5.20
2022,04,17,01,05,5.10
2022,04,17,01,06,5.10
2022,04,17,01,07,5.10
2022,04,17,01,08,5.10
2022,04,17,01,09,5.10
2022,04,17,01,10,5.10
2022,04,17,01,11,5.10
2022,04,17,01,12,5.10
2022,04,17,01,13,5.10
2022,04,17,01,14,5.00
2022,04,17,01,15,5.00
2022,04,17,01,16,5.00
2022,04,17,01,17,5.00
2022,04,17,01,18,5.00
2022,04,17,01,19,5.00
2022,04,17,01,20,5.00
2022,04,17,01,21,5.00
2022,04,17,01,22,5.00
2022,04,17,01,23,5.00
2022,04,17,01,24,5.00
2022,04,17,01,25,5.00
2022,04,17,01,26,4.90
2022,04,17,01,27,4.90
2022,04,17,01,28,4.90
2022,04,17,01,29,4.90
2022,04,17,01,30,4.90
2022,04,17,01,31,4.80
2022,04,17,01,32,4.80
2022,04,17,01,33,4.70
2022,04,17,01,34,4.70
2022,04,17,01,35,4.70
2022,04,17,01,36,4.70
2022,04,17,01,37,4.70
2022,04,17,01,38,4.60
2022,04,17,01,39,4.60
2022,04,17,01,40,4.60
2022,04,17,01,41,4.60
2022,04,17,01,42,4.60
2022,04,17,01,43,4.60
2022,04,17,01,44,4.50
2022,04,17,01,45,4.50
2022,04,17,01,46,4.50
2022,04,17,01,47,4.40
2022,04,17,01,48,4.40
2022,04,17,01,49,4.40
2022,04,17,01,50,4.30
2022,04,17,01,51,4.30
2022,04,17,01,52,4.30
2022,04,17,01,53,4.30
2022,04,17,01,54,4.30
2022,04,17,01,55,4.30
2022,04,17,01,56,4.30
2022,04,17,01,57,4.40
2022,04,17,01,58,4.40
2022,04,17,01,59,4.40
2022,04,17,02,00,4.40
2022,04,17,02,01,4.30
2022,04,17,02,02,4.30
2022,04,17,02,03,4.30
2022,04,17,02,04,4.30
2022,04,17,02,05,4.30
2022,04,17,02,06,4.20
2022,04,17,02,07,4.20
2022,04,17,02,08,4.20
2022,04,17,02,09,4.20
2022,04,17,02,10,4.20
2022,04,17,02,11,4.20
2022,04,17,02,12,4.20
2022,04,17,02,13,4.20
2022,04,17,02,14,4.20
2022,04,17,02,15,4.20
2022,04,17,02,16,4.20
2022,04,17,02,17,4.20
2022,04,17,02,18,4.20
2022,04,17,02,19,4.10
2022,04,17,02,20,4.10
2022,04,17,02,21,4.10
2022,04,17,02,22,4.10
2022,04,17,02,23,4.20
2022,04,17,02,24,4.20
2022,04,17,02,25,4.20
2022,04,17,02,26,4.30
2022,04,17,02,27,4.30
2022,04,17,02,28,4.40
2022,04,17,02,29,4.50
2022,04,17,02,30,4.50
2022,04,17,02,31,4.60
2022,04,17,02,32,4.60
2022,04,17,02,33,4.70
2022,04,17,02,34,4.70
2022,04,17,02,35,4.70
2022,04,17,02,36,4.70
2022,04,17,02,37,4.80
2022,04,17,02,38,4.80
2022,04,17,02,39,4.80
2022,04,17,02,40,4.80
2022,04,17,02,41,4.80
2022,04,17,02,42,4.80
2022,04,17,02,43,4.70
2022,04,17,02,44,4.70
2022,04,17,02,45,4.70
2022,04,17,02,46,4.70
2022,04,17,02,47,4.70
2022,04,17,02,48,4.70
2022,04,17,02,49,4.70
2022,04,17,02,50,4.70
2022,04,17,02,51,4.70
2022,04,17,02,52,4.70
2022,04,17,02,53,4.60
2022,04,17,02,54,4.60
2022,04,17,02,55,4.60
2022,04,17,02,56,4.60
2022,04,17,02,57,4.60
2022,04,17,02,58,4.50
2022,04,17,02,59,4.50
2022,04,17,03,00,4.50
2022,04,17,03,01,4.50
2022,04,17,03,02,4.50
2022,04,17,03,03,4.50
2022,04,17,03,04,4.40
2022,04,17,03,05,4.40
2022,04,17,03,06,4.40
2022,04,17,03,07,4.40
2022,04,17,03,08,4.40
2022,04,17,03,09,4.40
2022,04,17,03,10,4.40
2022,04,17,03,11,4.40
2022,04,17,03,12,4.40
2022,04,17,03,13,4.50
2022,04,17,03,14,4.40
2022,04,17,03,15,4.40
2022,04,17,03,16,4.40
2022,04,17,03,17,4.40
2022,04,17,03,18,4.40
2022,04,17,03,19,4.40
2022,04,17,03,20,4.40
2022,04,17,03,21,4.40
2022,04,17,03,22,4.40
2022,04,17,03,23,4.40
2022,04,17,03,24,4.30
2022,04,17,03,25,4.30
2022,04,17,03,26,4.20
2022,04,17,03,27,4.10
2022,04,17,03,28,4.00
2022,04,17,03,29,4.00
2022,04,17,03,30,3.90
2022,04,17,03,31,3.80
2022,04,17,03,32,3.70
2022,04,17,03,33,3.70
2022,04,17,03,34,3.60
2022,04,17,03,35,3.50
2022,04,17,03,36,3.50
2022,04,17,03,37,3.40
2022,04,17,03,38,3.30
2022,04,17,03,39,3.30
2022,04,17,03,40,3.30
2022,04,17,03,41,3.30
2022,04,17,03,42,3.30
2022,04,17,03,43,3.30
2022,04,17,03,44,3.30
2022,04,17,03,45,3.30
2022,04,17,03,46,3.30
2022,04,17,03,47,3.30
2022,04,17,03,48,3.30
2022,04,17,03,49,3.30
2022,04,17,03,50,3.20
2022,04,17,03,51,3.20
2022,04,17,03,52,3.20
2022,04,17,03,53,3.10
2022,04,17,03,54,3.00
2022,04,17,03,55,3.00
2022,04,17,03,56,2.90
2022,04,17,03,57,2.80
2022,04,17,03,58,2.80
2022,04,17,03,59,2.70
2022,04,17,04,00,2.70
2022,04,17,04,01,2.60
2022,04,17,04,02,2.60
2022,04,17,04,03,2.60
2022,04,17,04,04,2.60
2022,04,17,04,05,2.60
2022,04,17,04,06,2.70
2022,04,17,04,07,2.70
2022,04,17,04,08,2.70
2022,04,17,04,09,2.70
2022,04,17,04,10,2.70
2022,04,17,04,11,2.60
2022,04,17,04,12,2.60
2022,04,17,04,13,2.60
2022,04,17,04,14,2.60
2022,04,17,04,15,2.60
2022,04,17,04,16,2.60
2022,04,17,04,17,2.60
2022,04,17,04,18,2.60
2022,04,17,04,19,2.60
2022,04,17,04,20,2.60
2022,04,17,04,21,2.60
2022,04,17,04,22,2.50
2022,04,17,04,23,2.50
2022,04,17,04,24,2.50
2022,04,17,04,25,2.60
2022,04,17,04,26,2.50
2022,04,17,04,27,2.50
2022,04,17,04,28,2.40
2022,04,17,04,29,2.40
2022,04,17,04,30,2.30
2022,04,17,04,31,2.20
2022,04,17,04,32,2.10
2022,04,17,04,33,2.00
2022,04,17,04,34,2.00
2022,04,17,04,35,1.90
2022,04,17,04,36,1.90
2022,04,17,04,37,1.90
2022,04,17,04,38,1.90
2022,04,17,04,39,1.90
2022,04,17,04,40,1.90
2022,04,17,04,41,1.90
2022,04,17,04,42,2.00
2022,04,17,04,43,2.00
2022,04,17,04,44,2.10
2022,04,17,04,45,2.10
2022,04,17,04,46,2.10
2022,04,17,04,47,2.20
2022,04,17,04,48,2.20
2022,04,17,04,49,2.20
2022,04,17,04,50,2.20
2022,04,17,04,51,2.20
2022,04,17,04,52,2.20
2022,04,17,04,53,2.30
2022,04,17,04,54,2.30
2022,04,17,04,55,2.30
2022,04,17,04,56,2.30
2022,04,17,04,57,2.30
2022,04,17,04,58,2.30
2022,04,17,04,59,2.30
2022,04,17,05,00,2.20
2022,04,17,05,01,2.10
2022,04,17,05,02,2.00
2022,04,17,05,03,2.00
2022,04,17,05,04,1.90
2022,04,17,05,05,1.90
2022,04,17,05,06,1.90
2022,04,17,05,07,1.90
2022,04,17,05,08,1.90
2022,04,17,05,09,1.90
2022,04,17,05,10,1.90
2022,04,17,05,11,1.80
2022,04,17,05,12,1.80
2022,04,17,05,13,1.80
2022,04,17,05,14,1.80
2022,04,17,05,15,1.80
2022,04,17,05,16,1.80
2022,04,17,05,17,1.80
2022,04,17,05,18,1.80
2022,04,17,05,19,1.80
2022,04,17,05,20,1.80
2022,04,17,05,21,1.70
2022,04,17,05,22,1.70
2022,04,17,05,23,1.70
2022,04,17,05,24,1.70
2022,04,17,05,25,1.70
2022,04,17,05,26,1.60
2022,04,17,05,27,1.60
2022,04,17,05,28,1.70
2022,04,17,05,29,1.60
2022,04,17,05,30,1.70
2022,04,17,05,31,1.70
2022,04,17,05,32,1.70
2022,04,17,05,33,1.70
2022,04,17,05,34,1.70
2022,04,17,05,35,1.70
2022,04,17,05,36,1.60
2022,04,17,05,37,1.60
2022,04,17,05,38,1.60
2022,04,17,05,39,1.60
2022,04,17,05,40,1.60
2022,04,17,05,41,1.60
2022,04,17,05,42,1.60
2022,04,17,05,43,1.60
2022,04,17,05,44,1.70
2022,04,17,05,45,1.70
2022,04,17,05,46,1.80
2022,04,17,05,47,1.80
2022,04,17,05,48,1.80
2022,04,17,05,49,1.80
2022,04,17,05,50,1.80
2022,04,17,05,51,1.80
2022,04,17,05,52,1.80
2022,04,17,05,53,1.80
2022,04,17,05,54,1.80
2022,04,17,05,55,1.80
2022,04,17,05,56,1.70
2022,04,17,05,57,1.70
2022,04,17,05,58,1.70
2022,04,17,05,59,1.70
2022,04,17,06,00,1.70
2022,04,17,06,01,1.60
2022,04,17,06,02,1.60
2022,04,17,06,03,1.60
2022,04,17,06,04,1.60
2022,04,17,06,05,1.60
2022,04,17,06,06,1.60
2022,04,17,06,07,1.60
2022,04,17,06,08,1.60
2022,04,17,06,09,1.60
2022,04,17,06,10,1.70
2022,04,17,06,11,1.70
2022,04,17,06,12,1.70
2022,04,17,06,13,1.80
2022,04,17,06,14,1.80
2022,04,17,06,15,1.80
2022,04,17,06,16,1.80
2022,04,17,06,17,1.80
2022,04,17,06,18,1.80
2022,04,17,06,19,1.80
2022,04,17,06,20,1.80
2022,04,17,06,21,1.80
2022,04,17,06,22,1.80
2022,04,17,06,23,1.80
2022,04,17,06,24,1.80
2022,04,17,06,25,1.80
2022,04,17,06,26,1.80
2022,04,17,06,27,1.80
2022,04,17,06,28,1.80
2022,04,17,06,29,1.80
2022,04,17,06,30,1.80
2022,04,17,06,31,1.80
2022,04,17,06,32,1.80
2022,04,17,06,33,1.80
2022,04,17,06,34,1.70
2022,04,17,06,35,1.60
2022,04,17,06,36,1.60
2022,04,17,06,37,1.60
2022,04,17,06,38,1.70
2022,04,17,06,39,1.70
2022,04,17,06,40,1.70
2022,04,17,06,41,1.80
2022,04,17,06,42,1.80
2022,04,17,06,43,1.80
2022,04,17,06,44,1.70
2022,04,17,06,45,1.70
2022,04,17,06,46,1.70
2022,04,17,06,47,1.60
2022,04,17,06,48,1.60
2022,04,17,06,49,1.60
2022,04,17,06,50,1.50
2022,04,17,06,51,1.50
2022,04,17,06,52,1.40
2022,04,17,06,53,1.40
2022,04,17,06,54,1.40
2022,04,17,06,55,1.40
2022,04,17,06,56,1.40
2022,04,17,06,57,1.40
2022,04,17,06,58,1.40
2022,04,17,06,59,1.40
2022,04,17,07,00,1.40
2022,04,17,07,01,1.40
2022,04,17,07,02,1.40
2022,04,17,07,03,1.40
2022,04,17,07,04,1.40
2022,04,17,07,05,1.40
2022,04,17,07,06,1.40
2022,04,17,07,07,1.40
2022,04,17,07,08,1.50
2022,04,17,07,09,1.50
2022,04,17,07,10,1.50
2022,04,17,07,11,1.50
2022,04,17,07,12,1.50
2022,04,17,07,13,1.50
2022,04,17,07,14,1.50
2022,04,17,07,15,1.60
2022,04,17,07,16,1.60
2022,04,17,07,17,1.60
2022,04,17,07,18,1.60
2022,04,17,07,19,1.60
2022,04,17,07,20,1.60
2022,04,17,07,21,1.60
2022,04,17,07,22,1.60
2022,04,17,07,23,1.70
2022,04,17,07,24,1.70
2022,04,17,07,25,1.70
2022,04,17,07,26,1.70
2022,04,17,07,27,1.70
2022,04,17,07,28,1.70
2022,04,17,07,29,1.80
2022,04,17,07,30,1.80
2022,04,17,07,31,1.80
2022,04,17,07,32,1.80
2022,04,17,07,33,1.80
2022,04,17,07,34,1.90
2022,04,17,07,35,1.90
2022,04,17,07,36,1.90
2022,04,17,07,37,1.90
2022,04,17,07,38,2.00
2022,04,17,07,39,2.00
2022,04,17,07,40,2.10
2022,04,17,07,41,2.10
2022,04,17,07,42,2.20
2022,04,17,07,43,2.20
2022,04,17,07,44,2.30
2022,04,17,07,45,2.30
2022,04,17,07,46,2.30
2022,04,17,07,47,2.40
2022,04,17,07,48,2.40
2022,04,17,07,49,2.50
2022,04,17,07,50,2.50
2022,04,17,07,51,2.50
2022,04,17,07,52,2.60
2022,04,17,07,53,2.60
2022,04,17,07,54,2.70
2022,04,17,07,55,2.70
2022,04,17,07,56,2.70
2022,04,17,07,57,2.80
2022,04,17,07,58,2.80
2022,04,17,07,59,2.90
2022,04,17,08,00,2.90
2022,04,17,08,01,3.00
2022,04,17,08,02,3.00
2022,04,17,08,03,3.10
2022,04,17,08,04,3.10
2022,04,17,08,05,3.10
2022,04,17,08,06,3.20
2022,04,17,08,07,3.20
2022,04,17,08,08,3.20
2022,04,17,08,09,3.20
2022,04,17,08,10,3.20
2022,04,17,08,11,3.20
2022,04,17,08,12,3.20
2022,04,17,08,13,3.30
2022,04,17,08,14,3.30
2022,04,17,08,15,3.30
2022,04,17,08,16,3.30
2022,04,17,08,17,3.30
2022,04,17,08,18,3.30
2022,04,17,08,19,3.40
2022,04,17,08,20,3.40
2022,04,17,08,21,3.40
2022,04,17,08,22,3.40
2022,04,17,08,23,3.40
2022,04,17,08,24,3.50
2022,04,17,08,25,3.50
2022,04,17,08,26,3.60
2022,04,17,08,27,3.60
2022,04,17,08,28,3.60
2022,04,17,08,29,3.60
2022,04,17,08,30,3.70
2022,04,17,08,31,3.70
2022,04,17,08,32,3.80
2022,04,17,08,33,3.80
2022,04,17,08,34,3.80
2022,04,17,08,35,3.80
2022,04,17,08,36,3.90
2022,04,17,08,37,4.00
2022,04,17,08,38,4.00
2022,04,17,08,39,4.10
2022,04,17,08,40,4.10
2022,04,17,08,41,4.10
2022,04,17,08,42,4.20
2022,04,17,08,43,4.20
2022,04,17,08,44,4.20
2022,04,17,08,45,4.20
2022,04,17,08,46,4.20
2022,04,17,08,47,4.20
2022,04,17,08,48,4.20
2022,04,17,08,49,4.30
2022,04,17,08,50,4.30
2022,04,17,08,51,4.30
2022,04,17,08,52,4.30
2022,04,17,08,53,4.30
2022,04,17,08,54,4.30
2022,04,17,08,55,4.30
2022,04,17,08,56,4.40
2022,04,17,08,57,4.40
2022,04,17,08,58,4.40
2022,04,17,08,59,4.50
2022,04,17,09,00,4.50
2022,04,17,09,01,4.50
2022,04,17,09,02,4.60
2022,04,17,09,03,4.60
2022,04,17,09,04,4.60
2022,04,17,09,05,4.60
2022,04,17,09,06,4.70
2022,04,17,09,07,4.70
2022,04,17,09,08,4.80
2022,04,17,09,09,4.80
2022,04,17,09,10,4.90
2022,04,17,09,11,4.90
2022,04,17,09,12,4.90
2022,04,17,09,13,5.00
2022,04,17,09,14,5.00
2022,04,17,09,15,5.10
2022,04,17,09,16,5.20
2022,04,17,09,17,5.30
2022,04,17,09,18,5.40
2022,04,17,09,19,5.50
2022,04,17,09,20,5.60
2022,04,17,09,21,5.80
2022,04,17,09,22,5.90
2022,04,17,09,23,6.00
2022,04,17,09,24,6.00
2022,04,17,09,25,6.10
2022,04,17,09,26,6.20
2022,04,17,09,27,6.30
2022,04,17,09,28,6.40
2022,04,17,09,29,6.60
2022,04,17,09,30,6.70
2022,04,17,09,31,6.80
2022,04,17,09,32,6.80
2022,04,17,09,33,6.90
2022,04,17,09,34,6.90
2022,04,17,09,35,7.00
2022,04,17,09,36,7.00
2022,04,17,09,37,7.10
2022,04,17,09,38,7.20
2022,04,17,09,39,7.30
2022,04,17,09,40,7.30
2022,04,17,09,41,7.40
2022,04,17,09,42,7.50
2022,04,17,09,43,7.50
2022,04,17,09,44,7.50
2022,04,17,09,45,7.50
2022,04,17,09,46,7.50
2022,04,17,09,47,7.60
2022,04,17,09,48,7.60
2022,04,17,09,49,7.60
2022,04,17,09,50,7.60
2022,04,17,09,51,7.60
2022,04,17,09,52,7.60
2022,04,17,09,53,7.60
2022,04,17,09,54,7.60
2022,04,17,09,55,7.70
2022,04,17,09,56,7.70
2022,04,17,09,57,7.70
2022,04,17,09,58,7.70
2022,04,17,09,59,7.80
2022,04,17,10,00,7.90
2022,04,17,10,01,7.90
2022,04,17,10,02,7.90
2022,04,17,10,03,8.00
2022,04,17,10,04,8.00
2022,04,17,10,05,7.90
2022,04,17,10,06,7.90
2022,04,17,10,07,7.90
2022,04,17,10,08,7.90
2022,04,17,10,09,7.90
2022,04,17,10,10,7.80
2022,04,17,10,11,7.80
2022,04,17,10,12,7.80
2022,04,17,10,13,7.70
2022,04,17,10,14,7.70
2022,04,17,10,15,7.70
2022,04,17,10,16,7.70
2022,04,17,10,17,7.70
2022,04,17,10,18,7.70
2022,04,17,10,19,7.80
2022,04,17,10,20,7.80
2022,04,17,10,21,7.80
2022,04,17,10,22,7.90
2022,04,17,10,23,7.90
2022,04,17,10,24,7.90
2022,04,17,10,25,8.00
2022,04,17,10,26,8.00
2022,04,17,10,27,8.10
2022,04,17,10,28,8.20
2022,04,17,10,29,8.20
2022,04,17,10,30,8.20
2022,04,17,10,31,8.30
2022,04,17,10,32,8.30
2022,04,17,10,33,8.30
2022,04,17,10,34,8.30
2022,04,17,10,35,8.30
2022,04,17,10,36,8.30
2022,04,17,10,37,8.30
2022,04,17,10,38,8.30
2022,04,17,10,39,8.30
2022,04,17,10,40,8.30
2022,04,17,10,41,8.40
2022,04,17,10,42,8.40
2022,04,17,10,43,8.40
2022,04,17,10,44,8.30
2022,04,17,10,45,8.30
2022,04,17,10,46,8.30
2022,04,17,10,47,8.40
2022,04,17,10,48,8.40
2022,04,17,10,49,8.50
2022,04,17,10,50,8.50
2022,04,17,10,51,8.60
2022,04,17,10,52,8.60
2022,04,17,10,53,8.50
2022,04,17,10,54,8.40
2022,04,17,10,55,8.40
2022,04,17,10,56,8.30
2022,04,17,10,57,8.30
2022,04,17,10,58,8.30
2022,04,17,10,59,8.30
2022,04,17,11,00,8.30
2022,04,17,11,01,8.40
2022,04,17,11,02,8.40
2022,04,17,11,03,8.50
2022,04,17,11,04,8.50
2022,04,17,11,05,8.50
2022,04,17,11,06,8.50
2022,04,17,11,07,8.40
2022,04,17,11,08,8.40
2022,04,17,11,09,8.30
2022,04,17,11,10,8.30
2022,04,17,11,11,8.30
2022,04,17,11,12,8.30
2022,04,17,11,13,8.30
2022,04,17,11,14,8.30
2022,04,17,11,15,8.30
2022,04,17,11,16,8.40
2022,04,17,11,17,8.40
2022,04,17,11,18,8.40
2022,04,17,11,19,8.40
2022,04,17,11,20,8.40
2022,04,17,11,21,8.40
2022,04,17,11,22,8.40
2022,04,17,11,23,8.50
2022,04,17,11,24,8.60
2022,04,17,11,25,8.60
2022,04,17,11,26,8.70
2022,04,17,11,27,8.70
2022,04,17,11,28,8.70
2022,04,17,11,29,8.70
2022,04,17,11,30,8.70
2022,04,17,11,31,8.70
2022,04,17,11,32,8.70
2022,04,17,11,33,8.70
2022,04,17,11,34,8.70
2022,04,17,11,35,8.80
2022,04,17,11,36,8.80
2022,04,17,11,37,8.80
2022,04,17,11,38,8.80
2022,04,17,11,39,8.80
2022,04,17,11,40,8.80
2022,04,17,11,41,8.80
2022,04,17,11,42,8.80
2022,04,17,11,43,8.80
2022,04,17,11,44,8.80
2022,04,17,11,45,8.70
2022,04,17,11,46,8.70
2022,04,17,11,47,8.80
2022,04,17,11,48,8.80
2022,04,17,11,49,8.80
2022,04,17,11,50,8.80
2022,04,17,11,51,8.80
2022,04,17,11,52,8.80
2022,04,17,11,53,8.80
2022,04,17,11,54,8.80
2022,04,17,11,55,8.90
2022,04,17,11,56,8.90
2022,04,17,11,57,9.00
2022,04,17,11,58,9.00
2022,04,17,11,59,9.00
2022,04,17,12,00,9.00
2022,04,17,12,01,9.10
2022,04,17,12,02,9.10
2022,04,17,12,03,9.20
2022,04,17,12,04,9.20
2022,04,17,12,05,9.10
2022,04,17,12,06,9.10
2022,04,17,12,07,9.10
2022,04,17,12,08,9.20
2022,04,17,12,09,9.30
2022,04,17,12,10,9.30
2022,04,17,12,11,9.30
2022,04,17,12,12,9.30
2022,04,17,12,13,9.30
2022,04,17,12,14,9.30
2022,04,17,12,15,9.30
2022,04,17,12,16,9.30
2022,04,17,12,17,9.40
2022,04,17,12,18,9.40
2022,04,17,12,19,9.40
2022,04,17,12,20,9.50
2022,04,17,12,21,9.50
2022,04,17,12,22,9.50
2022,04,17,12,23,9.50
2022,04,17,12,24,9.60
2022,04,17,12,25,9.50
2022,04,17,12,26,9.50
2022,04,17,12,27,9.40
2022,04,17,12,28,9.40
2022,04,17,12,29,9.40
2022,04,17,12,30,9.40
2022,04,17,12,31,9.50
2022,04,17,12,32,9.40
2022,04,17,12,33,9.40
2022,04,17,12,34,9.40
2022,04,17,12,35,9.30
2022,04,17,12,36,9.30
2022,04,17,12,37,9.30
2022,04,17,12,38,9.20
2022,04,17,12,39,9.20
2022,04,17,12,40,9.20
2022,04,17,12,41,9.20
2022,04,17,12,42,9.20
2022,04,17,12,43,9.20
2022,04,17,12,44,9.30
2022,04,17,12,45,9.30
2022,04,17,12,46,9.30
2022,04,17,12,47,9.40
2022,04,17,12,48,9.40
2022,04,17,12,49,9.40
2022,04,17,12,50,9.40
2022,04,17,12,51,9.40
2022,04,17,12,52,9.40
2022,04,17,12,53,9.50
2022,04,17,12,54,9.40
2022,04,17,12,55,9.40
2022,04,17,12,56,9.40
2022,04,17,12,57,9.30
2022,04,17,12,58,9.30
2022,04,17,12,59,9.40
2022,04,17,13,00,9.40
2022,04,17,13,01,9.30
2022,04,17,13,02,9.30
2022,04,17,13,03,9.30
2022,04,17,13,04,9.30
2022,04,17,13,05,9.30
2022,04,17,13,06,9.30
2022,04,17,13,07,9.30
2022,04,17,13,08,9.40
2022,04,17,13,09,9.40
2022,04,17,13,10,9.50
2022,04,17,13,11,9.40
2022,04,17,13,12,9.30
2022,04,17,13,13,9.30
2022,04,17,13,14,9.30
2022,04,17,13,15,9.20
2022,04,17,13,16,9.20
2022,04,17,13,17,9.20
2022,04,17,13,18,9.20
2022,04,17,13,19,9.20
2022,04,17,13,20,9.20
2022,04,17,13,21,9.10
2022,04,17,13,22,9.10
2022,04,17,13,23,9.20
2022,04,17,13,24,9.20
2022,04,17,13,25,9.20
2022,04,17,13,26,9.30
2022,04,17,13,27,9.30
2022,04,17,13,28,9.30
2022,04,17,13,29,9.30
2022,04,17,13,30,9.20
2022,04,17,13,31,9.20
2022,04,17,13,32,9.20
2022,04,17,13,33,9.20
2022,04,17,13,34,9.20
2022,04,17,13,35,9.20
2022,04,17,13,36,9.20
2022,04,17,13,37,9.20
2022,04,17,13,38,9.20
2022,04,17,13,39,9.20
2022,04,17,13,40,9.20
2022,04,17,13,41,9.20
2022,04,17,13,42,9.20
2022,04,17,13,43,9.30
2022,04,17,13,44,9.30
2022,04,17,13,45,9.30
2022,04,17,13,46,9.30
2022,04,17,13,47,9.30
2022,04,17,13,48,9.30
2022,04,17,13,49,9.30
2022,04,17,13,50,9.20
2022,04,17,13,51,9.20
2022,04,17,13,52,9.10
2022,04,17,13,53,9.10
2022,04,17,13,54,9.20
2022,04,17,13,55,9.20
2022,04,17,13,56,9.30
2022,04,17,13,57,9.30
2022,04,17,13,58,9.30
2022,04,17,13,59,9.30
2022,04,17,14,00,9.30
2022,04,17,14,01,9.30
2022,04,17,14,02,9.30
2022,04,17,14,03,9.30
2022,04,17,14,04,9.40
2022,04,17,14,05,9.40
2022,04,17,14,06,9.50
2022,04,17,14,07,9.50
2022,04,17,14,08,9.50
2022,04,17,14,09,9.50
2022,04,17,14,10,9.50
2022,04,17,14,11,9.60
2022,04,17,14,12,9.60
2022,04,17,14,13,9.60
2022,04,17,14,14,9.60
2022,04,17,14,15,9.60
2022,04,17,14,16,9.60
2022,04,17,14,17,9.50
2022,04,17,14,18,9.40
2022,04,17,14,19,9.40
2022,04,17,14,20,9.40
2022,04,17,14,21,9.40
2022,04,17,14,22,9.50
2022,04,17,14,23,9.60
2022,04,17,14,24,9.70
2022,04,17,14,25,9.70
2022,04,17,14,26,9.70
2022,04,17,14,27,9.70
2022,04,17,14,28,9.70
2022,04,17,14,29,9.80
2022,04,17,14,30,9.80
2022,04,17,14,31,9.90
2022,04,17,14,32,9.80
2022,04,17,14,33,9.90
2022,04,17,14,34,9.90
2022,04,17,14,35,9.90
2022,04,17,14,36,9.90
2022,04,17,14,37,9.90
2022,04,17,14,38,9.90
2022,04,17,14,39,9.80
2022,04,17,14,40,9.80
2022,04,17,14,41,9.70
2022,04,17,14,42,9.70
2022,04,17,14,43,9.70
2022,04,17,14,44,9.80
2022,04,17,14,45,9.80
2022,04,17,14,46,9.80
2022,04,17,14,47,9.80
2022,04,17,14,48,9.80
2022,04,17,14,49,9.90
2022,04,17,14,50,9.90
2022,04,17,14,51,10.00
2022,04,17,14,52,10.00
2022,04,17,14,53,10.00
2022,04,17,14,54,10.00
2022,04,17,14,55,10.00
2022,04,17,14,56,10.00
2022,04,17,14,57,10.00
2022,04,17,14,58,10.00
2022,04,17,14,59,9.90
2022,04,17,15,00,9.90
2022,04,17,15,01,9.90
2022,04,17,15,02,9.90
2022,04,17,15,03,9.90
2022,04,17,15,04,9.90
2022,04,17,15,05,9.90
2022,04,17,15,06,9.90
2022,04,17,15,07,9.90
2022,04,17,15,08,9.90
2022,04,17,15,09,9.90
2022,04,17,15,10,9.90
2022,04,17,15,11,9.90
2022,04,17,15,12,9.80
2022,04,17,15,13,9.80
2022,04,17,15,14,9.80
2022,04,17,15,15,9.80
2022,04,17,15,16,9.70
2022,04,17,15,17,9.70
2022,04,17,15,18,9.70
2022,04,17,15,19,9.80
2022,04,17,15,20,9.80
2022,04,17,15,21,9.80
2022,04,17,15,22,9.90
2022,04,17,15,23,9.90
2022,04,17,15,24,9.90
2022,04,17,15,25,9.90
2022,04,17,15,26,9.90
2022,04,17,15,27,10.00
2022,04,17,15,28,10.10
2022,04,17,15,29,10.10
2022,04,17,15,30,10.10
2022,04,17,15,31,10.10
2022,04,17,15,32,10.10
2022,04,17,15,33,10.10
2022,04,17,15,34,10.00
2022,04,17,15,35,10.00
2022,04,17,15,36,10.10
2022,04,17,15,37,10.10
2022,04,17,15,38,10.10
2022,04,17,15,39,10.10
2022,04,17,15,40,10.00
2022,04,17,15,41,10.00
2022,04,17,15,42,9.90
2022,04,17,15,43,9.90
2022,04,17,15,44,9.90
2022,04,17,15,45,9.90
2022,04,17,15,46,9.90
2022,04,17,15,47,9.90
2022,04,17,15,48,9.90
2022,04,17,15,49,9.90
2022,04,17,15,50,9.90
2022,04,17,15,51,9.90
2022,04,17,15,52,9.90
2022,04,17,15,53,9.90
2022,04,17,15,54,9.90
2022,04,17,15,55,9.90
2022,04,17,15,56,10.00
2022,04,17,15,57,10.00
2022,04,17,15,58,10.00
2022,04,17,15,59,9.90
2022,04,17,16,00,9.90
2022,04,17,16,01,9.90
2022,04,17,16,02,10.00
2022,04,17,16,03,10.00
2022,04,17,16,04,10.10
2022,04,17,16,05,10.10
2022,04,17,16,06,10.20
2022,04,17,16,07,10.20
2022,04,17,16,08,10.20
2022,04,17,16,09,10.10
2022,04,17,16,10,10.10
2022,04,17,16,11,10.10
2022,04,17,16,12,10.10
2022,04,17,16,13,10.10
2022,04,17,16,14,10.10
2022,04,17,16,15,10.00
2022,04,17,16,16,10.00
2022,04,17,16,17,10.00
2022,04,17,16,18,10.00
2022,04,17,16,19,10.00
2022,04,17,16,20,10.10
2022,04,17,16,21,10.10
2022,04,17,16,22,10.10
2022,04,17,16,23,10.10
2022,04,17,16,24,10.10
2022,04,17,16,25,10.10
2022,04,17,16,26,10.00
2022,04,17,16,27,10.00
2022,04,17,16,28,10.00
2022,04,17,16,29,10.10
2022,04,17,16,30,10.10
2022,04,17,16,31,10.10
2022,04,17,16,32,10.10
2022,04,17,16,33,10.10
2022,04,17,16,34,10.10
2022,04,17,16,35,10.10
2022,04,17,16,36,10.00
2022,04,17,16,37,10.00
2022,04,17,16,38,9.90
2022,04,17,16,39,9.90
2022,04,17,16,40,9.90
2022,04,17,16,41,10.00
2022,04,17,16,42,10.00
2022,04,17,16,43,10.00
2022,04,17,16,44,10.10
2022,04,17,16,45,10.10
2022,04,17,16,46,10.10
2022,04,17,16,47,10.10
2022,04,17,16,48,10.10
2022,04,17,16,49,10.10
2022,04,17,16,50,10.10
2022,04,17,16,51,10.20
2022,04,17,16,52,10.20
2022,04,17,16,53,10.20
2022,04,17,16,54,10.20
2022,04,17,16,55,10.20
2022,04,17,16,56,10.20
2022,04,17,16,57,10.20
2022,04,17,16,58,10.20
2022,04,17,16,59,10.20
2022,04,17,17,00,10.20
2022,04,17,17,01,10.20
2022,04,17,17,02,10.20
2022,04,17,17,03,10.20
2022,04,17,17,04,10.20
2022,04,17,17,05,10.20
2022,04,17,17,06,10.20
2022,04,17,17,07,10.20
2022,04,17,17,08,10.20
2022,04,17,17,09,10.30
2022,04,17,17,10,10.30
2022,04,17,17,11,10.30
2022,04,17,17,12,10.30
2022,04,17,17,13,10.30
2022,04,17,17,14,10.30
2022,04,17,17,15,10.30
2022,04,17,17,16,10.30
2022,04,17,17,17,10.30
2022,04,17,17,18,10.30
2022,04,17,17,19,10.30
2022,04,17,17,20,10.30
2022,04,17,17,21,10.30
2022,04,17,17,22,10.30
2022,04,17,17,23,10.30
2022,04,17,17,24,10.30
2022,04,17,17,25,10.30
2022,04,17,17,26,10.30
2022,04,17,17,27,10.30
2022,04,17,17,28,10.20
2022,04,17,17,29,10.20
2022,04,17,17,30,10.20
2022,04,17,17,31,10.20
2022,04,17,17,32,10.20
2022,04,17,17,33,10.20
2022,04,17,17,34,10.20
2022,04,17,17,35,10.20
2022,04,17,17,36,10.10
2022,04,17,17,37,10.10
2022,04,17,17,38,10.10
2022,04,17,17,39,10.10
2022,04,17,17,40,10.10
2022,04,17,17,41,10.10
2022,04,17,17,42,10.00
2022,04,17,17,43,10.00
2022,04,17,17,44,10.00
2022,04,17,17,45,10.00
2022,04,17,17,46,10.00
2022,04,17,17,47,10.00
2022,04,17,17,48,10.00
2022,04,17,17,49,10.00
2022,04,17,17,50,10.00
2022,04,17,17,51,10.00
2022,04,17,17,52,10.00
2022,04,17,17,53,10.10
2022,04,17,17,54,10.10
2022,04,17,17,55,10.10
2022,04,17,17,56,10.10
2022,04,17,17,57,10.10
2022,04,17,17,58,10.10
2022,04,17,17,59,10.20
2022,04,17,18,00,10.20